,,PA_Meas_PMT16A,,PR_Meas_QMR101_102,,RH_Meas_QMH101,,SR_Meas_QMS101,,TA_Meas_QMH101,,GenWind,,GenWind,
time,status,PA,status,PR,status,RH,status,SR,status,TA,status,DirAvg,status,SpdAvg,
2014-12-20, 00:00:04,VALID,918.203,VALID,0,VALID,97.6407,VALID,0,VALID,20.5414,VALID,151,VALID,0,
2014-12-20, 00:01:04,VALID,918.18,VALID,0,VALID,97.6483,VALID,0,VALID,20.5204,VALID,151,VALID,0,
2014-12-20, 00:02:04,VALID,918.197,VALID,0,VALID,97.6331,VALID,0,VALID,20.543,VALID,151,VALID,0,
2014-12-20, 00:03:04,VALID,918.172,VALID,0,VALID,97.656,VALID,0,VALID,20.5219,VALID,151,VALID,0,
2014-12-20, 00:04:04,VALID,918.173,VALID,0,VALID,97.6407,VALID,0,VALID,20.543,VALID,151,VALID,0,
2014-12-20, 00:05:04,VALID,918.169,VALID,0,VALID,97.6407,VALID,0,VALID,20.5219,VALID,151,VALID,0,
2014-12-20, 00:06:04,VALID,918.193,VALID,0,VALID,97.6178,VALID,0,VALID,20.5219,VALID,151,VALID,0,
2014-12-20, 00:07:04,VALID,918.198,VALID,0,VALID,97.6178,VALID,0,VALID,20.5009,VALID,151,VALID,0,
2014-12-20, 00:08:04,VALID,918.186,VALID,0,VALID,97.6178,VALID,0.107441,VALID,20.5219,VALID,151,VALID,0,
2014-12-20, 00:09:04,VALID,918.182,VALID,0,VALID,97.6102,VALID,0,VALID,20.5219,VALID,151,VALID,0,
2014-12-20, 00:10:04,VALID,918.227,VALID,0,VALID,97.6255,VALID,0,VALID,20.5219,VALID,151,VALID,0,
2014-12-20, 00:11:04,VALID,918.159,VALID,0,VALID,97.595,VALID,0,VALID,20.5024,VALID,151,VALID,0,
2014-12-20, 00:12:04,VALID,918.166,VALID,0,VALID,97.5873,VALID,0,VALID,20.4829,VALID,151,VALID,0,
2014-12-20, 00:13:04,VALID,918.176,VALID,0,VALID,97.5645,VALID,0,VALID,20.4634,VALID,151,VALID,0,
2014-12-20, 00:14:04,VALID,918.133,VALID,0,VALID,97.5721,VALID,0,VALID,20.4634,VALID,151,VALID,0,
2014-12-20, 00:15:04,VALID,918.14,VALID,0,VALID,97.5569,VALID,0,VALID,20.4439,VALID,151,VALID,0,
2014-12-20, 00:16:04,VALID,918.127,VALID,0,VALID,97.5264,VALID,0,VALID,20.4244,VALID,151,VALID,0,
2014-12-20, 00:17:04,VALID,918.082,VALID,0,VALID,97.5264,VALID,0,VALID,20.3854,VALID,151,VALID,0,
2014-12-20, 00:18:04,VALID,918.089,VALID,0,VALID,97.5111,VALID,0,VALID,20.3659,VALID,151,VALID,0,
2014-12-20, 00:19:04,VALID,918.091,VALID,0,VALID,97.4959,VALID,0,VALID,20.3464,VALID,151,VALID,0,
2014-12-20, 00:20:04,VALID,918.072,VALID,0,VALID,97.5035,VALID,0,VALID,20.3464,VALID,151,VALID,0,
2014-12-20, 00:21:04,VALID,918.084,VALID,0,VALID,97.5035,VALID,0,VALID,20.3269,VALID,151,VALID,0,
2014-12-20, 00:22:04,VALID,918.028,VALID,0,VALID,97.4806,VALID,0,VALID,20.3074,VALID,151,VALID,0,
2014-12-20, 00:23:04,VALID,918.067,VALID,0,VALID,97.4882,VALID,0,VALID,20.3284,VALID,151,VALID,0,
2014-12-20, 00:24:04,VALID,918.056,VALID,0,VALID,97.4882,VALID,0,VALID,20.2879,VALID,151,VALID,0,
2014-12-20, 00:25:04,VALID,918.057,VALID,0,VALID,97.4959,VALID,0,VALID,20.2879,VALID,151,VALID,0,
2014-12-20, 00:26:04,VALID,918.016,VALID,0,VALID,97.5111,VALID,0,VALID,20.3089,VALID,151,VALID,0,
2014-12-20, 00:27:04,VALID,918.024,VALID,0,VALID,97.5187,VALID,0,VALID,20.3089,VALID,151,VALID,0,
2014-12-20, 00:28:04,VALID,917.999,VALID,0,VALID,97.5416,VALID,0,VALID,20.3284,VALID,151,VALID,0,
2014-12-20, 00:29:04,VALID,917.983,VALID,0,VALID,97.5569,VALID,0,VALID,20.2879,VALID,151,VALID,0,
2014-12-20, 00:30:04,VALID,917.997,VALID,0,VALID,97.5569,VALID,0,VALID,20.3284,VALID,151,VALID,0,
2014-12-20, 00:31:04,VALID,917.967,VALID,0,VALID,97.5569,VALID,0,VALID,20.3284,VALID,151,VALID,0,
2014-12-20, 00:32:04,VALID,917.959,VALID,0,VALID,97.5797,VALID,0,VALID,20.3464,VALID,151,VALID,0,
2014-12-20, 00:33:04,VALID,917.961,VALID,0,VALID,97.5873,VALID,0,VALID,20.3464,VALID,151,VALID,0,
2014-12-20, 00:34:04,VALID,917.985,VALID,0,VALID,97.6102,VALID,0,VALID,20.3659,VALID,151,VALID,0,
2014-12-20, 00:35:04,VALID,917.962,VALID,0,VALID,97.6026,VALID,0,VALID,20.3869,VALID,151,VALID,0,
2014-12-20, 00:36:04,VALID,917.967,VALID,0,VALID,97.6331,VALID,0,VALID,20.3869,VALID,151,VALID,0,
2014-12-20, 00:37:04,VALID,917.972,VALID,0,VALID,97.6255,VALID,0.107441,VALID,20.3869,VALID,151,VALID,0,
2014-12-20, 00:38:04,VALID,917.925,VALID,0,VALID,97.6255,VALID,0,VALID,20.3464,VALID,151,VALID,0,
2014-12-20, 00:39:04,VALID,917.941,VALID,0,VALID,97.656,VALID,0,VALID,20.3479,VALID,151,VALID,0,
2014-12-20, 00:40:04,VALID,917.903,VALID,0,VALID,97.6483,VALID,0,VALID,20.3074,VALID,151,VALID,0,
2014-12-20, 00:41:04,VALID,917.907,VALID,0,VALID,97.656,VALID,0,VALID,20.2879,VALID,151,VALID,0,
2014-12-20, 00:42:04,VALID,917.926,VALID,0,VALID,97.6407,VALID,0,VALID,20.2684,VALID,151,VALID,0,
2014-12-20, 00:43:04,VALID,917.901,VALID,0,VALID,97.6407,VALID,0,VALID,20.2684,VALID,151,VALID,0,
2014-12-20, 00:44:04,VALID,917.89,VALID,0,VALID,97.6483,VALID,0,VALID,20.2293,VALID,151,VALID,0,
2014-12-20, 00:45:04,VALID,917.892,VALID,0,VALID,97.6483,VALID,0,VALID,20.2293,VALID,151,VALID,0,
2014-12-20, 00:46:04,VALID,917.888,VALID,0,VALID,97.6712,VALID,0,VALID,20.2098,VALID,151,VALID,0,
2014-12-20, 00:47:04,VALID,917.888,VALID,0,VALID,97.656,VALID,0,VALID,20.1903,VALID,151,VALID,0,
2014-12-20, 00:48:04,VALID,917.893,VALID,0,VALID,97.6712,VALID,0,VALID,20.2114,VALID,151,VALID,0,
2014-12-20, 00:49:04,VALID,917.898,VALID,0,VALID,97.6788,VALID,0,VALID,20.2309,VALID,151,VALID,0,
2014-12-20, 00:50:04,VALID,917.9,VALID,0,VALID,97.656,VALID,0,VALID,20.2114,VALID,151,VALID,0,
2014-12-20, 00:51:04,VALID,917.906,VALID,0,VALID,97.6865,VALID,0,VALID,20.1903,VALID,151,VALID,0,
2014-12-20, 00:52:04,VALID,917.884,VALID,0,VALID,97.7017,VALID,0,VALID,20.2098,VALID,151,VALID,0,
2014-12-20, 00:53:04,VALID,917.863,VALID,0,VALID,97.6941,VALID,0,VALID,20.2114,VALID,151,VALID,0,
2014-12-20, 00:54:04,VALID,917.882,VALID,0,VALID,97.7169,VALID,0,VALID,20.1919,VALID,151,VALID,0,
2014-12-20, 00:55:04,VALID,917.872,VALID,0,VALID,97.7093,VALID,0,VALID,20.1919,VALID,151,VALID,0,
2014-12-20, 00:56:04,VALID,917.852,VALID,0,VALID,97.7246,VALID,0,VALID,20.2114,VALID,151,VALID,0,
2014-12-20, 00:57:04,VALID,917.846,VALID,0,VALID,97.7322,VALID,0,VALID,20.2114,VALID,151,VALID,0,
2014-12-20, 00:58:04,VALID,917.857,VALID,0,VALID,97.7474,VALID,0,VALID,20.2114,VALID,151,VALID,0,
2014-12-20, 00:59:04,VALID,917.819,VALID,0,VALID,97.7398,VALID,0,VALID,20.1919,VALID,151,VALID,0,
2014-12-20, 01:00:04,VALID,917.826,VALID,0,VALID,97.7551,VALID,0,VALID,20.1724,VALID,151,VALID,0,
2014-12-20, 01:01:04,VALID,917.794,VALID,0,VALID,97.7703,VALID,0,VALID,20.1724,VALID,151,VALID,0,
2014-12-20, 01:02:04,VALID,917.824,VALID,0,VALID,97.7703,VALID,0,VALID,20.1724,VALID,151,VALID,0,
2014-12-20, 01:03:04,VALID,917.795,VALID,0,VALID,97.7856,VALID,0,VALID,20.1724,VALID,151,VALID,0,
2014-12-20, 01:04:04,VALID,917.79,VALID,0,VALID,97.7932,VALID,0,VALID,20.1513,VALID,151,VALID,0,
2014-12-20, 01:05:04,VALID,917.778,VALID,0,VALID,97.7779,VALID,0,VALID,20.1724,VALID,151,VALID,0,
2014-12-20, 01:06:04,VALID,917.763,VALID,0,VALID,97.7856,VALID,0,VALID,20.1724,VALID,151,VALID,0,
2014-12-20, 01:07:04,VALID,917.766,VALID,0,VALID,97.7932,VALID,0,VALID,20.1513,VALID,151,VALID,0,
2014-12-20, 01:08:04,VALID,917.772,VALID,0,VALID,97.7856,VALID,0,VALID,20.1513,VALID,151,VALID,0,
2014-12-20, 01:09:04,VALID,917.767,VALID,0,VALID,97.8008,VALID,0,VALID,20.1513,VALID,151,VALID,0,
2014-12-20, 01:10:04,VALID,917.74,VALID,0,VALID,97.7856,VALID,0,VALID,20.1919,VALID,151,VALID,0,
2014-12-20, 01:11:04,VALID,917.734,VALID,0,VALID,97.8008,VALID,0,VALID,20.1708,VALID,151,VALID,0,
2014-12-20, 01:12:04,VALID,917.721,VALID,0,VALID,97.8237,VALID,0,VALID,20.1708,VALID,151,VALID,0,
2014-12-20, 01:13:04,VALID,917.719,VALID,0,VALID,97.8237,VALID,0,VALID,20.1724,VALID,151,VALID,0,
2014-12-20, 01:14:04,VALID,917.682,VALID,0,VALID,97.816,VALID,0,VALID,20.1724,VALID,151,VALID,0,
2014-12-20, 01:15:04,VALID,917.661,VALID,0,VALID,97.8389,VALID,0,VALID,20.1513,VALID,151,VALID,0,
2014-12-20, 01:16:04,VALID,917.64,VALID,0,VALID,97.8084,VALID,0,VALID,20.1529,VALID,151,VALID,0,
2014-12-20, 01:17:04,VALID,917.626,VALID,0,VALID,97.8313,VALID,0,VALID,20.1724,VALID,151,VALID,0,
2014-12-20, 01:18:04,VALID,917.621,VALID,0,VALID,97.816,VALID,0,VALID,20.1513,VALID,151,VALID,0,
2014-12-20, 01:19:04,VALID,917.567,VALID,0,VALID,97.8313,VALID,0,VALID,20.1724,VALID,151,VALID,0,
2014-12-20, 01:20:04,VALID,917.555,VALID,0,VALID,97.8237,VALID,0,VALID,20.1724,VALID,151,VALID,0,
2014-12-20, 01:21:04,VALID,917.551,VALID,0,VALID,97.8237,VALID,0,VALID,20.1724,VALID,151,VALID,0,
2014-12-20, 01:22:04,VALID,917.534,VALID,0,VALID,97.8313,VALID,0,VALID,20.1919,VALID,151,VALID,0,
2014-12-20, 01:23:04,VALID,917.564,VALID,0,VALID,97.816,VALID,0,VALID,20.1513,VALID,151,VALID,0,
2014-12-20, 01:24:04,VALID,917.536,VALID,0,VALID,97.8389,VALID,0,VALID,20.1334,VALID,151,VALID,0,
2014-12-20, 01:25:04,VALID,917.551,VALID,0,VALID,97.8313,VALID,0,VALID,20.1334,VALID,151,VALID,0,
2014-12-20, 01:26:04,VALID,917.527,VALID,0,VALID,97.8084,VALID,0,VALID,20.1529,VALID,151,VALID,0,
2014-12-20, 01:27:04,VALID,917.492,VALID,0,VALID,97.8008,VALID,0,VALID,20.1919,VALID,151,VALID,0,
2014-12-20, 01:28:04,VALID,917.488,VALID,0,VALID,97.8084,VALID,0,VALID,20.1708,VALID,151,VALID,0,
2014-12-20, 01:29:04,VALID,917.473,VALID,0,VALID,97.8084,VALID,0,VALID,20.1903,VALID,151,VALID,0,
2014-12-20, 01:30:04,VALID,917.417,VALID,0,VALID,97.816,VALID,0,VALID,20.1919,VALID,151,VALID,0,
2014-12-20, 01:31:04,VALID,917.445,VALID,0,VALID,97.8237,VALID,0,VALID,20.1334,VALID,151,VALID,0,
2014-12-20, 01:32:04,VALID,917.429,VALID,0,VALID,97.8313,VALID,0,VALID,20.0944,VALID,151,VALID,0,
2014-12-20, 01:33:04,VALID,917.413,VALID,0,VALID,97.8237,VALID,0,VALID,20.0343,VALID,151,VALID,0,
2014-12-20, 01:34:04,VALID,917.429,VALID,0,VALID,97.8008,VALID,0,VALID,20.0553,VALID,151,VALID,0,
2014-12-20, 01:35:04,VALID,917.414,VALID,0,VALID,97.8084,VALID,0,VALID,20.0148,VALID,151,VALID,0,
2014-12-20, 01:36:05,VALID,917.418,VALID,0,VALID,97.8084,VALID,0,VALID,20.0553,VALID,151,VALID,0,
2014-12-20, 01:37:05,VALID,917.409,VALID,0,VALID,97.8008,VALID,0,VALID,20.0553,VALID,151,VALID,0,
2014-12-20, 01:38:05,VALID,917.415,VALID,0,VALID,97.8008,VALID,0,VALID,20.0553,VALID,151,VALID,0,
2014-12-20, 01:39:05,VALID,917.378,VALID,0,VALID,97.8313,VALID,0,VALID,20.0749,VALID,151,VALID,0,
2014-12-20, 01:40:05,VALID,917.402,VALID,0,VALID,97.8389,VALID,0,VALID,20.0944,VALID,151,VALID,0,
2014-12-20, 01:41:05,VALID,917.354,VALID,0,VALID,97.8237,VALID,0,VALID,20.1513,VALID,151,VALID,0,
2014-12-20, 01:42:05,VALID,917.413,VALID,0,VALID,97.8313,VALID,0,VALID,20.1903,VALID,151,VALID,0,
2014-12-20, 01:43:05,VALID,917.372,VALID,0,VALID,97.7932,VALID,0,VALID,20.2098,VALID,151,VALID,0,
2014-12-20, 01:44:05,VALID,917.385,VALID,0,VALID,97.8389,VALID,0,VALID,20.2293,VALID,151,VALID,0,
2014-12-20, 01:45:05,VALID,917.349,VALID,0,VALID,97.8237,VALID,0,VALID,20.2293,VALID,151,VALID,0,
2014-12-20, 01:46:05,VALID,917.362,VALID,0,VALID,97.8313,VALID,0,VALID,20.2504,VALID,151,VALID,0,
2014-12-20, 01:47:05,VALID,917.352,VALID,0,VALID,97.8389,VALID,0,VALID,20.1903,VALID,151,VALID,0,
2014-12-20, 01:48:05,VALID,917.361,VALID,0,VALID,97.8618,VALID,0,VALID,20.2309,VALID,151,VALID,0,
2014-12-20, 01:49:05,VALID,917.33,VALID,0,VALID,97.8389,VALID,0,VALID,20.2098,VALID,151,VALID,0,
2014-12-20, 01:50:05,VALID,917.299,VALID,0,VALID,97.8465,VALID,0,VALID,20.2098,VALID,151,VALID,0,
2014-12-20, 01:51:05,VALID,917.305,VALID,0,VALID,97.8542,VALID,0,VALID,20.2293,VALID,151,VALID,0,
2014-12-20, 01:52:05,VALID,917.292,VALID,0,VALID,97.8389,VALID,0,VALID,20.2504,VALID,151,VALID,0,
2014-12-20, 01:53:05,VALID,917.302,VALID,0,VALID,97.8465,VALID,0,VALID,20.2293,VALID,151,VALID,0,
2014-12-20, 01:54:05,VALID,917.292,VALID,0,VALID,97.8313,VALID,0,VALID,20.2293,VALID,151,VALID,0,
2014-12-20, 01:55:05,VALID,917.255,VALID,0,VALID,97.8313,VALID,0,VALID,20.2504,VALID,151,VALID,0,
2014-12-20, 01:56:05,VALID,917.25,VALID,0,VALID,97.8618,VALID,0,VALID,20.2504,VALID,151,VALID,0,
2014-12-20, 01:57:05,VALID,917.227,VALID,0,VALID,97.8313,VALID,0,VALID,20.2293,VALID,151,VALID,0,
2014-12-20, 01:58:05,VALID,917.235,VALID,0,VALID,97.8618,VALID,0,VALID,20.2293,VALID,151,VALID,0,
2014-12-20, 01:59:05,VALID,917.241,VALID,0,VALID,97.8618,VALID,0,VALID,20.2489,VALID,151,VALID,0,
2014-12-20, 02:00:05,VALID,917.235,VALID,0,VALID,97.8542,VALID,0,VALID,20.2699,VALID,151,VALID,0,
2014-12-20, 02:01:05,VALID,917.21,VALID,0,VALID,97.8618,VALID,0,VALID,20.2684,VALID,151,VALID,0,
2014-12-20, 02:02:05,VALID,917.209,VALID,0,VALID,97.8694,VALID,0,VALID,20.2879,VALID,151,VALID,0,
2014-12-20, 02:03:05,VALID,917.173,VALID,0,VALID,97.8618,VALID,0,VALID,20.2879,VALID,151,VALID,0,
2014-12-20, 02:04:05,VALID,917.192,VALID,0,VALID,97.8694,VALID,0,VALID,20.2879,VALID,151,VALID,0,
2014-12-20, 02:05:05,VALID,917.152,VALID,0,VALID,97.8542,VALID,0,VALID,20.3089,VALID,151,VALID,0,
2014-12-20, 02:06:05,VALID,917.127,VALID,0,VALID,97.8847,VALID,0,VALID,20.3284,VALID,151,VALID,0,
2014-12-20, 02:07:05,VALID,917.116,VALID,0,VALID,97.8618,VALID,0,VALID,20.3089,VALID,151,VALID,0,
2014-12-20, 02:08:05,VALID,917.101,VALID,0,VALID,97.8694,VALID,0,VALID,20.2879,VALID,151,VALID,0,
2014-12-20, 02:09:05,VALID,917.077,VALID,0,VALID,97.877,VALID,0,VALID,20.2879,VALID,151,VALID,0,
2014-12-20, 02:10:05,VALID,917.098,VALID,0,VALID,97.8923,VALID,0,VALID,20.2879,VALID,151,VALID,0,
2014-12-20, 02:11:05,VALID,917.051,VALID,0,VALID,97.877,VALID,0,VALID,20.2879,VALID,151,VALID,0,
2014-12-20, 02:12:05,VALID,917.065,VALID,0,VALID,97.8694,VALID,0,VALID,20.3074,VALID,151,VALID,0,
2014-12-20, 02:13:05,VALID,917.04,VALID,0,VALID,97.8923,VALID,0,VALID,20.3269,VALID,151,VALID,0,
2014-12-20, 02:14:05,VALID,917.028,VALID,0,VALID,97.8847,VALID,0,VALID,20.3269,VALID,151,VALID,0,
2014-12-20, 02:15:05,VALID,917.01,VALID,0,VALID,97.877,VALID,0,VALID,20.3074,VALID,151,VALID,0,
2014-12-20, 02:16:05,VALID,917,VALID,0,VALID,97.9075,VALID,0,VALID,20.3674,VALID,151,VALID,0,
2014-12-20, 02:17:05,VALID,916.987,VALID,0,VALID,97.9075,VALID,0,VALID,20.3284,VALID,151,VALID,0,
2014-12-20, 02:18:05,VALID,916.965,VALID,0,VALID,97.8923,VALID,0,VALID,20.3074,VALID,151,VALID,0,
2014-12-20, 02:19:05,VALID,916.991,VALID,0,VALID,97.9075,VALID,0,VALID,20.2879,VALID,151,VALID,0,
2014-12-20, 02:20:05,VALID,916.99,VALID,0,VALID,97.9152,VALID,0,VALID,20.2879,VALID,151,VALID,0,
2014-12-20, 02:21:05,VALID,916.983,VALID,0,VALID,97.9075,VALID,0,VALID,20.2894,VALID,151,VALID,0,
2014-12-20, 02:22:05,VALID,916.973,VALID,0,VALID,97.8999,VALID,0,VALID,20.3284,VALID,151,VALID,0,
2014-12-20, 02:23:05,VALID,916.962,VALID,0,VALID,97.9228,VALID,0,VALID,20.3074,VALID,151,VALID,0,
2014-12-20, 02:24:05,VALID,916.974,VALID,0,VALID,97.9152,VALID,0,VALID,20.3284,VALID,151,VALID,0,
2014-12-20, 02:25:05,VALID,916.951,VALID,0,VALID,97.9075,VALID,0,VALID,20.3284,VALID,151,VALID,0,
2014-12-20, 02:26:05,VALID,916.941,VALID,0,VALID,97.9152,VALID,0,VALID,20.3284,VALID,151,VALID,0,
2014-12-20, 02:27:05,VALID,916.949,VALID,0,VALID,97.9152,VALID,0,VALID,20.3089,VALID,151,VALID,0,
2014-12-20, 02:28:05,VALID,916.924,VALID,0,VALID,97.938,VALID,0,VALID,20.3284,VALID,151,VALID,0,
2014-12-20, 02:29:05,VALID,916.872,VALID,0,VALID,97.9228,VALID,0,VALID,20.3089,VALID,151,VALID,0,
2014-12-20, 02:30:05,VALID,916.889,VALID,0,VALID,97.9152,VALID,0,VALID,20.3284,VALID,151,VALID,0,
2014-12-20, 02:31:05,VALID,916.896,VALID,0,VALID,97.9304,VALID,0,VALID,20.3284,VALID,151,VALID,0,
2014-12-20, 02:32:05,VALID,916.88,VALID,0,VALID,97.9075,VALID,0,VALID,20.3495,VALID,151,VALID,0,
2014-12-20, 02:33:05,VALID,916.88,VALID,0,VALID,97.938,VALID,0,VALID,20.3479,VALID,151,VALID,0,
2014-12-20, 02:34:05,VALID,916.883,VALID,0,VALID,97.9304,VALID,0,VALID,20.3284,VALID,151,VALID,0,
2014-12-20, 02:35:05,VALID,916.874,VALID,0,VALID,97.9304,VALID,0,VALID,20.3479,VALID,151,VALID,0,
2014-12-20, 02:36:05,VALID,916.838,VALID,0,VALID,97.9152,VALID,0,VALID,20.3284,VALID,151,VALID,0,
2014-12-20, 02:37:05,VALID,916.852,VALID,0,VALID,97.9152,VALID,0,VALID,20.3479,VALID,151,VALID,0,
2014-12-20, 02:38:05,VALID,916.835,VALID,0,VALID,97.938,VALID,0,VALID,20.3269,VALID,151,VALID,0,
2014-12-20, 02:39:05,VALID,916.805,VALID,0,VALID,97.9228,VALID,0,VALID,20.3269,VALID,151,VALID,0,
2014-12-20, 02:40:05,VALID,916.813,VALID,0,VALID,97.9304,VALID,0,VALID,20.3464,VALID,151,VALID,0,
2014-12-20, 02:41:05,VALID,916.808,VALID,0,VALID,97.938,VALID,0,VALID,20.3659,VALID,151,VALID,0,
2014-12-20, 02:42:05,VALID,916.774,VALID,0,VALID,97.938,VALID,0,VALID,20.3854,VALID,151,VALID,0,
2014-12-20, 02:43:05,VALID,916.796,VALID,0,VALID,97.9533,VALID,0,VALID,20.3674,VALID,151,VALID,0,
2014-12-20, 02:44:05,VALID,916.76,VALID,0,VALID,97.938,VALID,0,VALID,20.3464,VALID,151,VALID,0,
2014-12-20, 02:45:05,VALID,916.752,VALID,0,VALID,97.938,VALID,0,VALID,20.3464,VALID,151,VALID,0,
2014-12-20, 02:46:05,VALID,916.718,VALID,0,VALID,97.938,VALID,0,VALID,20.3885,VALID,151,VALID,0,
2014-12-20, 02:47:05,VALID,916.708,VALID,0,VALID,97.9304,VALID,0,VALID,20.3674,VALID,151,VALID,0,
2014-12-20, 02:48:05,VALID,916.683,VALID,0,VALID,97.9304,VALID,0,VALID,20.3674,VALID,151,VALID,0,
2014-12-20, 02:49:05,VALID,916.631,VALID,0,VALID,97.9228,VALID,0,VALID,20.3674,VALID,151,VALID,0,
2014-12-20, 02:50:05,VALID,916.666,VALID,0,VALID,97.9456,VALID,0,VALID,20.3479,VALID,151,VALID,0,
2014-12-20, 02:51:05,VALID,916.631,VALID,0,VALID,97.9304,VALID,0,VALID,20.3674,VALID,151,VALID,0,
2014-12-20, 02:52:05,VALID,916.619,VALID,0,VALID,97.9228,VALID,0,VALID,20.3869,VALID,151,VALID,0,
2014-12-20, 02:53:05,VALID,916.628,VALID,0,VALID,97.9304,VALID,0,VALID,20.3869,VALID,151,VALID,0,
2014-12-20, 02:54:05,VALID,916.585,VALID,0,VALID,97.9456,VALID,0,VALID,20.3464,VALID,151,VALID,0,
2014-12-20, 02:55:05,VALID,916.604,VALID,0,VALID,97.9456,VALID,0,VALID,20.3464,VALID,151,VALID,0,
2014-12-20, 02:56:05,VALID,916.562,VALID,0,VALID,97.9456,VALID,0,VALID,20.3464,VALID,151,VALID,0,
2014-12-20, 02:57:05,VALID,916.55,VALID,0,VALID,97.9533,VALID,0,VALID,20.3269,VALID,151,VALID,0,
2014-12-20, 02:58:05,VALID,916.52,VALID,0,VALID,97.9609,VALID,0,VALID,20.3479,VALID,151,VALID,0,
2014-12-20, 02:59:05,VALID,916.504,VALID,0,VALID,97.9609,VALID,0,VALID,20.3479,VALID,151,VALID,0,
2014-12-20, 03:00:05,VALID,916.479,VALID,0,VALID,97.9533,VALID,0,VALID,20.3284,VALID,151,VALID,0,
2014-12-20, 03:01:05,VALID,916.473,VALID,0,VALID,97.938,VALID,0,VALID,20.3284,VALID,151,VALID,0,
2014-12-20, 03:02:05,VALID,916.491,VALID,0,VALID,97.9609,VALID,0,VALID,20.2894,VALID,151,VALID,0,
2014-12-20, 03:03:05,VALID,916.469,VALID,0,VALID,97.9761,VALID,0,VALID,20.2894,VALID,151,VALID,0,
2014-12-20, 03:04:05,VALID,916.433,VALID,0,VALID,97.9761,VALID,0,VALID,20.2909,VALID,151,VALID,0,
2014-12-20, 03:05:05,VALID,916.452,VALID,0,VALID,97.9685,VALID,0,VALID,20.2714,VALID,151,VALID,0,
2014-12-20, 03:06:05,VALID,916.428,VALID,0,VALID,97.9685,VALID,0,VALID,20.2504,VALID,151,VALID,0,
2014-12-20, 03:07:05,VALID,916.459,VALID,0,VALID,97.9685,VALID,0,VALID,20.2714,VALID,151,VALID,0,
2014-12-20, 03:08:05,VALID,916.416,VALID,0,VALID,97.9685,VALID,0,VALID,20.2519,VALID,151,VALID,0,
2014-12-20, 03:09:05,VALID,916.42,VALID,0,VALID,97.9761,VALID,0,VALID,20.2504,VALID,151,VALID,0,
2014-12-20, 03:10:05,VALID,916.399,VALID,0,VALID,97.9838,VALID,0,VALID,20.2504,VALID,151,VALID,0,
2014-12-20, 03:11:05,VALID,916.405,VALID,0,VALID,97.9914,VALID,0,VALID,20.2098,VALID,151,VALID,0,
2014-12-20, 03:12:05,VALID,916.359,VALID,0,VALID,97.9685,VALID,0,VALID,20.2519,VALID,151,VALID,0,
2014-12-20, 03:13:05,VALID,916.379,VALID,0,VALID,97.9838,VALID,0,VALID,20.2114,VALID,151,VALID,0,
2014-12-20, 03:14:05,VALID,916.365,VALID,0,VALID,97.9761,VALID,0,VALID,20.2098,VALID,151,VALID,0,
2014-12-20, 03:15:05,VALID,916.364,VALID,0,VALID,97.9838,VALID,0,VALID,20.2114,VALID,151,VALID,0,
2014-12-20, 03:16:05,VALID,916.349,VALID,0,VALID,97.9685,VALID,0,VALID,20.2309,VALID,151,VALID,0,
2014-12-20, 03:17:05,VALID,916.373,VALID,0,VALID,97.9761,VALID,0,VALID,20.2309,VALID,151,VALID,0,
2014-12-20, 03:18:05,VALID,916.353,VALID,0,VALID,97.9761,VALID,0,VALID,20.2083,VALID,151,VALID,0,
2014-12-20, 03:19:05,VALID,916.361,VALID,0,VALID,97.9761,VALID,0,VALID,20.2504,VALID,151,VALID,0,
2014-12-20, 03:20:05,VALID,916.34,VALID,0,VALID,97.9761,VALID,0,VALID,20.2714,VALID,151,VALID,0,
2014-12-20, 03:21:05,VALID,916.342,VALID,0,VALID,97.9685,VALID,0,VALID,20.2699,VALID,151,VALID,0,
2014-12-20, 03:22:05,VALID,916.354,VALID,0,VALID,97.9685,VALID,0,VALID,20.2894,VALID,151,VALID,0,
2014-12-20, 03:23:05,VALID,916.334,VALID,0,VALID,97.9685,VALID,0,VALID,20.2684,VALID,151,VALID,0,
2014-12-20, 03:24:05,VALID,916.301,VALID,0,VALID,97.9761,VALID,0,VALID,20.2879,VALID,151,VALID,0,
2014-12-20, 03:25:05,VALID,916.311,VALID,0,VALID,97.9761,VALID,0,VALID,20.2894,VALID,151,VALID,0,
2014-12-20, 03:26:05,VALID,916.306,VALID,0,VALID,97.9609,VALID,0,VALID,20.2684,VALID,151,VALID,0,
2014-12-20, 03:27:05,VALID,916.283,VALID,0,VALID,97.9761,VALID,0,VALID,20.2879,VALID,151,VALID,0,
2014-12-20, 03:28:05,VALID,916.305,VALID,0,VALID,97.9685,VALID,0,VALID,20.3089,VALID,151,VALID,0,
2014-12-20, 03:29:05,VALID,916.276,VALID,0,VALID,97.938,VALID,0,VALID,20.3089,VALID,151,VALID,0,
2014-12-20, 03:30:05,VALID,916.243,VALID,0,VALID,97.9761,VALID,0,VALID,20.2684,VALID,151,VALID,0,
2014-12-20, 03:31:05,VALID,916.243,VALID,0,VALID,97.9761,VALID,0,VALID,20.3089,VALID,151,VALID,0,
2014-12-20, 03:32:05,VALID,916.248,VALID,0,VALID,97.9685,VALID,0,VALID,20.2879,VALID,157,VALID,0,
2014-12-20, 03:33:05,VALID,916.239,VALID,0,VALID,97.9685,VALID,0,VALID,20.3284,VALID,22,VALID,0,
2014-12-20, 03:34:05,VALID,916.241,VALID,0,VALID,97.9609,VALID,0,VALID,20.3284,VALID,22,VALID,0,
2014-12-20, 03:35:05,VALID,916.213,VALID,0,VALID,97.9685,VALID,0,VALID,20.3479,VALID,22,VALID,0,
2014-12-20, 03:36:05,VALID,916.222,VALID,0,VALID,97.9761,VALID,0,VALID,20.3269,VALID,22,VALID,0,
2014-12-20, 03:37:05,VALID,916.194,VALID,0,VALID,97.9609,VALID,0,VALID,20.3479,VALID,22,VALID,0,
2014-12-20, 03:38:05,VALID,916.197,VALID,0,VALID,97.9685,VALID,0,VALID,20.3074,VALID,22,VALID,0,
2014-12-20, 03:39:05,VALID,916.228,VALID,0,VALID,97.9685,VALID,0,VALID,20.3284,VALID,22,VALID,0,
2014-12-20, 03:40:05,VALID,916.186,VALID,0,VALID,97.9609,VALID,0,VALID,20.3284,VALID,22,VALID,0,
2014-12-20, 03:41:05,VALID,916.229,VALID,0,VALID,97.9838,VALID,0,VALID,20.3074,VALID,22,VALID,0,
2014-12-20, 03:42:05,VALID,916.188,VALID,0,VALID,97.9761,VALID,0,VALID,20.3284,VALID,22,VALID,0,
2014-12-20, 03:43:05,VALID,916.174,VALID,0,VALID,97.9456,VALID,0,VALID,20.3479,VALID,22,VALID,0,
2014-12-20, 03:44:05,VALID,916.163,VALID,0,VALID,97.9685,VALID,0,VALID,20.3074,VALID,22,VALID,0,
2014-12-20, 03:45:05,VALID,916.177,VALID,0,VALID,98.0066,VALID,0,VALID,20.2863,VALID,22,VALID,0,
2014-12-20, 03:46:05,VALID,916.156,VALID,0,VALID,97.9685,VALID,0,VALID,20.369,VALID,22,VALID,0,
2014-12-20, 03:47:05,VALID,916.157,VALID,0,VALID,97.9761,VALID,0,VALID,20.3464,VALID,22,VALID,0,
2014-12-20, 03:48:05,VALID,916.135,VALID,0,VALID,97.9685,VALID,0,VALID,20.3253,VALID,22,VALID,0,
2014-12-20, 03:49:05,VALID,916.163,VALID,0,VALID,97.9685,VALID,0,VALID,20.3253,VALID,22,VALID,0,
2014-12-20, 03:50:05,VALID,916.172,VALID,0,VALID,97.9838,VALID,0,VALID,20.3479,VALID,22,VALID,0,
2014-12-20, 03:51:05,VALID,916.15,VALID,0,VALID,97.9685,VALID,0,VALID,20.3269,VALID,22,VALID,0,
2014-12-20, 03:52:05,VALID,916.138,VALID,0,VALID,97.9685,VALID,0,VALID,20.3058,VALID,22,VALID,0,
2014-12-20, 03:53:05,VALID,916.15,VALID,0,VALID,97.9838,VALID,0,VALID,20.3269,VALID,22,VALID,0,
2014-12-20, 03:54:05,VALID,916.137,VALID,0,VALID,97.9761,VALID,0,VALID,20.369,VALID,27,VALID,0,
2014-12-20, 03:55:05,VALID,916.129,VALID,0,VALID,97.9761,VALID,0,VALID,20.3674,VALID,4,VALID,0,
2014-12-20, 03:56:05,VALID,916.099,VALID,0,VALID,97.9761,VALID,0,VALID,20.3674,VALID,4,VALID,0,
2014-12-20, 03:57:05,VALID,916.096,VALID,0,VALID,97.9685,VALID,0,VALID,20.3479,VALID,5,VALID,0,
2014-12-20, 03:58:05,VALID,916.129,VALID,0,VALID,97.9838,VALID,0,VALID,20.3269,VALID,4,VALID,0,
2014-12-20, 03:59:05,VALID,916.106,VALID,0,VALID,97.9838,VALID,0,VALID,20.3269,VALID,4,VALID,0,
2014-12-20, 04:00:05,VALID,916.117,VALID,0,VALID,97.9838,VALID,0,VALID,20.3269,VALID,4,VALID,0,